Flag for Denmark Weather past 2 weeks in Vejle, Denmark

Now
43 °F

Light fog.


Feels Like: 43 °F
Forecast: 51 / 56 °F
Wind: 2 mph from East

Location: Billund Lufthavn

Current Time: Oct 22, 2014 at 6:13:10 AM

Latest Report: Oct 22, 2014 at 5:20 AM


Visibility: 1 mi

Pressure: 29.45 "Hg

Humidity: 100%

Dew point: 43 °F

Location of VejleLocation

Historic Weather in Vejle — Graph

°F

Vejle temperature yesterday

Maximum temperature yesterday: 55 °F (at 12:50 PM)
Minimum temperature yesterday: 48 °F (at 3:20 AM)
Average temperature yesterday: 51 °F

Past Weeks' High & Low Weather Summary

 TemperatureHumidityPressure
High63 °F (Oct 11, 2:20 PM)100% (Oct 8, 7:20 AM)30.07 "Hg (Oct 8, 7:20 AM)
Low39 °F (Oct 12, 10:50 PM)64% (Oct 11, 2:20 PM)29.27 "Hg (Oct 21, 5:20 PM)
Average54 °F91%29.73 "Hg
* Reported Oct 7 4:20 AM — Oct 22 4:50 AM, Vejle, Weather by CustomWeather, © 2014

Note: Actual official high and low records may vary slightly from our data, if they occured in-between our weather recording intervals... More about our weather records

Advertising

Vejle weather history for previous 24 hours

 ConditionsComfort  
Time TempWeatherWind HumidityBarometerVisibility
4:50 AM
Oct 22
41 °FLight fog.2 mph100%29.45 "Hg1 mi
4:20 AM41 °FLight fog.3 mph100%29.45 "HgN/A
4:00 AM41 °FFog.5 mph93%29.42 "HgN/A
3:20 AM43 °FFog.3 mph100%29.42 "Hg2 mi
2:50 AM45 °FClear.3 mph100%29.39 "Hg10 mi
2:20 AM46 °FFog.3 mph100%29.39 "HgN/A
1:50 AM43 °FPassing clouds.1 mph100%29.36 "Hg5 mi
1:20 AM46 °FPassing clouds.2 mph93%29.36 "HgN/A
12:50 AM48 °FPassing clouds.3 mph94%29.36 "HgN/A
12:20 AM48 °FPartly cloudy.5 mph94%29.33 "HgN/A
11:50 PM
Oct 21
50 °FOvercast.6 mph94%29.33 "HgN/A
11:20 PM50 °FPassing clouds.5 mph94%29.33 "HgN/A
10:50 PM50 °FPartly cloudy.6 mph94%29.30 "HgN/A
10:20 PM50 °FOvercast.6 mph94%29.30 "HgN/A
9:50 PM50 °FPartly cloudy.5 mph94%29.30 "HgN/A
9:20 PM50 °FPassing clouds.5 mph94%29.30 "HgN/A
8:50 PM52 °FLight rain. Partly cloudy.6 mph94%29.27 "HgN/A
8:20 PM52 °FLight rain. Partly cloudy.7 mph94%29.27 "HgN/A
8:00 PM52 °FLight rain. Partly cloudy.7 mph94%29.27 "HgN/A
7:20 PM52 °FPassing clouds.10 mph100%29.27 "Hg3 mi
6:50 PM52 °FLight rain. Partly sunny.14 mph100%29.27 "Hg4 mi
6:20 PM52 °FLight rain. Partly sunny.15 mph100%29.27 "Hg3 mi
5:50 PM52 °FDrizzle. Fog.14 mph100%29.27 "Hg1 mi
5:20 PM52 °FRain. Partly sunny.15 mph100%29.27 "Hg3 mi
4:50 PM52 °FLight rain. Partly sunny.14 mph100%29.30 "Hg5 mi
4:20 PM54 °FRain. Partly sunny.13 mph94%29.33 "Hg6 mi
3:50 PM54 °FLight rain. Low clouds.13 mph94%29.33 "Hg5 mi
3:20 PM54 °FLight rain. Partly sunny.13 mph94%29.36 "Hg5 mi
2:50 PM54 °FLight rain. Partly sunny.13 mph94%29.36 "Hg6 mi
2:20 PM54 °FLight rain. Fog.14 mph94%29.39 "Hg3 mi
1:50 PM54 °FSprinkles. Partly sunny.12 mph94%29.39 "Hg4 mi
1:20 PM54 °FPartly sunny.13 mph94%29.42 "HgN/A
12:50 PM55 °FPartly sunny.10 mph88%29.45 "HgN/A
12:20 PM54 °FPartly sunny.12 mph94%29.47 "HgN/A
11:50 AM54 °FPartly sunny.10 mph94%29.47 "HgN/A
11:20 AM54 °FPartly sunny.10 mph94%29.50 "HgN/A
10:50 AM52 °FBroken clouds.9 mph100%29.53 "HgN/A
10:20 AMN/APartly sunny.8 mphN/A29.53 "Hg6 mi
9:50 AM52 °FLight rain. Partly sunny.8 mph94%29.53 "Hg4 mi
9:20 AM50 °FLight rain. Partly sunny.8 mph100%29.56 "Hg4 mi
8:50 AM50 °FPassing clouds.8 mph100%29.56 "Hg4 mi
8:20 AM50 °FLow clouds.7 mph100%29.59 "Hg3 mi
7:50 AM50 °FPassing clouds.7 mph100%29.59 "Hg3 mi
7:20 AM50 °FPassing clouds.5 mph100%29.59 "Hg4 mi
6:50 AM50 °FPassing clouds.6 mph100%29.62 "Hg4 mi
6:20 AM50 °FFog.5 mph94%29.62 "Hg1 mi
Weather by CustomWeather, © 2014

See weather overviewHow to use our weather pages